Tracking 19242 objects as of 17-Aug-2018
HD Live streaming from Space Station
objects crossing your sky now

COSMOS 1806

Track COSMOS 1806 now!
COSMOS 1806 is classified as:


NORAD ID: 17213
Int'l Code: 1986-098A
Perigee: 5,425.4 km
Apogee: 34,910.2 km
Inclination: 68.7 °
Period: 717.1 minutes
Semi major axis: 26538 km
RCS: 14.9345 m2 (large)
Launch date: December 12, 1986
Source: Commonwealth of Independent States (former USSR) (CIS)
Launch site: PLESETSK MISSILE AND SPACE COMPLEX (PKMTR)
aabbcc
Your satellite tracking list
Your tracking list is empty




NASA's NSSDC Master Catalog

Two Line Element Set (TLE):
1 17213U 86098A   18228.80135417 +.00000336 +00000-0 +00000-0 0  9997
2 17213 068.6632 269.8909 5555041 145.6491 074.4433 02.00808229231917
Source of the keplerian elements: AFSPC